Temperature
0 0 -0 -0 -0 -0 -0 -0 0 0 0 0 0 1 1 1 1 1 1 1 1 1 1 1 1 1 1 1 0 0 0 -0 -1 0 1 1 1 1 1 1 2 2 2
-1 -1 -1 -1 -1 -1 -1 -1 -1 -0 -0 -0 -0 -0 0 0 0 0 0 -0 -0 0 0 0 0 0 0 0 0 -0 -0 -1 -1 -1 -0 -0 0 0 1 1 1 1 1
-1 -1 -1 -1 -1 -1 -1 -1 -1 -1 -1 -1 -1 -1 -1 -1 -1 -1 -1 -1 -1 -1 -1 -1 -1 -0 -0 -0 -0 -1 -1 -1 -1 -1 -1 -1 -1 -1 -0 -0 0 0 1
-2 -2 -2 -2 -2 -2 -2 -2 -2 -2 -2 -2 -1 -2 -1 -1 -1 -1 -1 -1 -1 -2 -2 -1 -1 -1 -1 -1 -1 -1 -1 -2 -2 -2 -2 -2 -2 -1 -1 -1 -1 -0 0
-2 -2 -2 -2 -2 -3 -3 -3 -3 -3 -3 -2 -2 -2 -2 -2 -2 -2 -2 -2 -2 -2 -2 -2 -2 -2 -2 -2 -2 -2 -2 -2 -2 -3 -3 -3 -2 -2 -2 -2 -2 -2 -1
-3 -3 -3 -3 -3 -3 -3 -3 -4 -3 -3 -3 -3 -3 -3 -3 -3 -3 -3 -3 -3 -3 -3 -3 -3 -3 -3 -3 -3 -3 -3 -3 -3 -3 -3 -3 -3 -3 -3 -3 -3 -3 -3
-3 -3 -4 -4 -4 -4 -4 -4 -4 -4 -4 -4 -4 -4 -4 -4 -4 -4 -4 -4 -4 -4 -4 -4 -4 -4 -4 -4 -3 -3 -3 -4 -4 -4 -4 -4 -4 -4 -4 -4 -3 -3 -3
-4 -4 -4 -5 -5 -5 -5 -5 -5 -5 -5 -5 -5 -4 -5 -4 -4 -5 -5 -5 -5 -5 -5 -5 -5 -5 -4 -5 -4 -4 -4 -4 -4 -4 -4 -4 -4 -4 -4 -4 -4 -4 -4
-5 -5 -5 -5 -5 -5 -5 -5 -5 -5 -5 -5 -5 -5 -5 -5 -5 -6 -6 -6 -6 -6 -6 -6 -6 -6 -5 -6 -6 -5 -5 -5 -5 -5 -5 -5 -5 -5 -5 -5 -5 -5 -5
-5 -5 -6 -6 -6 -6 -6 -6 -6 -6 -6 -6 -6 -6 -6 -6 -6 -6 -7 -7 -7 -7 -6 -6 -6 -6 -6 -6 -6 -6 -6 -5 -5 -5 -5 -5 -5 -5 -5 -5 -5 -5 -6
-6 -6 -6 -6 -6 -7 -7 -7 -7 -7 -7 -7 -7 -7 -7 -7 -7 -7 -7 -8 -7 -7 -7 -7 -7 -7 -7 -7 -7 -7 -6 -6 -6 -6 -6 -6 -5 -5 -6 -6 -6 -6 -6
-7 -7 -7 -7 -7 -7 -7 -7 -8 -8 -8 -8 -8 -8 -8 -8 -8 -8 -8 -8 -8 -8 -8 -7 -7 -7 -7 -7 -7 -7 -7 -7 -7 -7 -7 -6 -6 -6 -6 -6 -6 -6 -6
-7 -7 -7 -7 -8 -8 -8 -8 -8 -8 -8 -8 -8 -8 -8 -8 -8 -8 -8 -8 -8 -8 -8 -8 -8 -8 -8 -8 -8 -8 -8 -8 -7 -7 -7 -7 -7 -7 -6 -6 -6 -6 -6
-8 -8 -8 -8 -8 -8 -8 -9 -9 -9 -9 -9 -9 -9 -9 -9 -9 -9 -9 -8 -9 -8 -8 -8 -8 -8 -8 -8 -8 -8 -8 -8 -8 -8 -8 -8 -8 -8 -7 -7 -7 -7 -7
-8 -8 -9 -9 -9 -9 -9 -9 -9 -9 -9 -10 -10 -10 -10 -9 -9 -9 -9 -9 -9 -9 -9 -9 -9 -8 -8 -9 -9 -9 -9 -9 -9 -8 -8 -8 -8 -8 -8 -8 -8 -8 -8
-9 -9 -9 -9 -9 -9 -10 -10 -10 -10 -10 -10 -10 -10 -10 -10 -10 -10 -10 -10 -9 -9 -9 -9 -9 -9 -9 -9 -9 -9 -9 -9 -9 -9 -9 -9 -9 -9 -9 -9 -9 -8 -8
-9 -9 -10 -10 -10 -10 -10 -10 -10 -10 -10 -10 -10 -11 -11 -11 -10 -10 -10 -10 -10 -10 -10 -10 -10 -10 -10 -10 -10 -10 -10 -10 -10 -10 -10 -10 -10 -10 -10 -9 -9 -9 -9
-10 -10 -10 -10 -10 -10 -11 -11 -11 -11 -11 -11 -11 -11 -11 -11 -11 -11 -11 -11 -10 -10 -11 -11 -11 -11 -11 -11 -10 -10 -10 -10 -10 -10 -10 -10 -10 -10 -10 -10 -10 -10 -9
-10 -10 -10 -11 -11 -11 -11 -11 -11 -11 -11 -11 -11 -11 -11 -11 -11 -11 -11 -11 -11 -11 -11 -11 -11 -11 -11 -11 -11 -11 -11 -11 -11 -11 -11 -11 -11 -11 -11 -11 -10 -10 -10
-11 -11 -11 -11 -11 -11 -11 -12 -12 -12 -12 -12 -12 -12 -12 -12 -12 -12 -12 -12 -12 -12 -12 -12 -12 -12 -12 -12 -12 -11 -11 -11 -11 -11 -11 -11 -11 -11 -11 -11 -11 -11 -11
-11 -11 -11 -12 -12 -12 -12 -12 -12 -12 -12 -12 -12 -12 -13 -13 -12 -12 -12 -12 -12 -12 -12 -12 -12 -12 -12 -12 -12 -12 -12 -12 -11 -11 -11 -11 -11 -11 -11 -11 -11 -11 -11
-12 -12 -12 -12 -12 -12 -12 -12 -13 -13 -13 -13 -13 -13 -13 -13 -13 -13 -13 -13 -13 -13 -13 -13 -13 -13 -13 -13 -13 -12 -12 -12 -12 -12 -12 -12 -12 -12 -12 -12 -12 -12 -12
-12 -12 -12 -12 -13 -13 -13 -13 -13 -13 -13 -13 -13 -13 -13 -13 -13 -13 -13 -13 -13 -13 -13 -13 -13 -13 -13 -13 -13 -13 -13 -13 -12 -12 -12 -12 -12 -12 -12 -12 -12 -12 -12
-12 -13 -13 -13 -13 -13 -13 -13 -13 -13 -13 -13 -13 -14 -14 -14 -14 -14 -14 -13 -13 -13 -13 -13 -13 -13 -13 -13 -13 -13 -13 -13 -13 -13 -12 -12 -12 -12 -12 -12 -12 -12 -12
-13 -13 -13 -13 -13 -13 -13 -13 -13 -13 -14 -14 -14 -14 -14 -14 -14 -14 -14 -14 -14 -14 -14 -14 -14 -14 -13 -13 -13 -13 -13 -13 -13 -13 -13 -13 -13 -13 -13 -12 -12 -12 -12
-13 -13 -13 -13 -13 -14 -14 -14 -14 -14 -14 -14 -14 -14 -14 -14 -14 -14 -14 -14 -14 -14 -14 -14 -14 -14 -14 -14 -13 -13 -13 -13 -13 -13 -13 -13 -13 -13 -13 -13 -13 -13 -13
Wind_Speed
2 2 3 3 3 3 4 5 4 4 4 4 4 4 4 5 5 5 5 5 5 5 5 5 6 5 5 4 4 4 5 4 7 6 4 4 4 5 7 9 10 10 10
2 2 2 3 3 3 4 4 3 4 4 4 4 4 5 5 4 5 6 6 6 6 6 6 6 5 6 5 5 5 5 5 6 7 5 4 5 5 6 7 8 9 9
1 1 2 2 3 4 4 4 3 3 3 3 3 4 5 5 5 5 5 5 6 6 6 6 7 6 6 5 5 6 5 6 5 5 6 4 4 4 5 6 7 7 9
2 1 2 3 3 4 4 3 3 3 3 3 4 4 4 4 5 5 5 5 5 6 6 6 7 7 8 7 6 6 6 6 5 5 6 5 4 4 4 5 6 5 6
2 2 3 3 3 3 3 3 2 3 3 3 3 3 4 4 4 5 5 5 5 6 6 6 7 8 9 8 7 6 6 6 6 6 6 6 5 4 5 5 6 6 7
2 3 3 3 2 2 2 2 2 2 2 2 2 3 4 4 7 8 6 5 5 6 6 6 6 8 9 10 11 10 9 8 8 7 7 8 8 6 5 6 6 6 6
2 3 3 3 2 2 2 1 1 1 1 2 2 3 4 6 8 9 9 5 5 5 6 5 5 6 7 6 8 9 10 11 10 8 9 9 8 6 6 7 7 8 9
2 3 3 2 2 2 2 1 2 1 2 2 3 3 4 6 8 8 8 4 4 5 5 5 6 6 6 7 6 6 7 7 9 8 8 9 8 7 8 8 8 8 8
2 2 2 2 2 2 2 2 2 2 2 2 3 3 3 5 8 8 7 3 3 5 5 5 6 6 10 10 7 7 7 7 8 10 11 10 12 12 9 5 5 6 7
3 3 2 2 2 2 3 3 2 2 2 3 3 3 4 5 7 7 7 3 4 4 5 5 8 9 10 10 7 7 8 7 6 7 8 9 8 9 10 6 6 7 6
3 3 3 2 2 2 2 2 2 2 2 2 3 4 4 5 6 8 8 4 4 5 5 5 5 9 11 11 9 7 8 7 5 6 6 6 5 5 6 6 7 7 7
2 3 3 3 2 2 2 2 2 2 2 3 3 4 4 5 6 7 9 8 7 5 5 5 6 9 9 10 8 8 10 8 5 4 5 5 5 5 5 6 7 8 8
2 2 3 3 3 2 2 2 2 2 2 3 3 3 4 4 5 8 9 9 9 5 5 7 8 9 8 7 8 9 8 5 4 5 5 6 5 5 6 5 6 7 7
2 2 2 2 3 2 2 2 2 2 2 3 3 4 4 4 4 5 4 5 7 6 5 6 7 8 7 6 6 6 5 4 4 5 5 5 4 4 5 4 5 5 5
2 2 3 2 2 3 3 2 3 3 4 4 4 4 4 4 6 8 6 4 3 4 3 2 2 3 3 3 3 4 4 4 4 4 4 4 5 5 5 4 4 5 6
2 2 2 2 2 2 3 4 5 5 6 7 6 6 5 7 9 9 8 8 7 6 3 2 3 3 4 4 4 4 4 4 4 4 4 5 5 5 5 5 5 5 6
2 3 2 2 2 3 3 3 4 5 6 7 7 8 8 8 9 9 9 8 7 5 3 2 3 3 4 4 4 4 4 4 4 4 5 5 5 5 5 5 5 5 6
3 3 3 2 2 3 3 3 3 4 4 5 6 8 9 9 9 9 9 6 4 4 2 3 3 3 3 4 4 4 4 4 4 4 5 5 5 5 5 6 6 6 6
3 2 2 2 2 2 3 3 3 4 4 5 5 6 8 9 9 9 7 3 3 3 3 3 3 4 4 4 4 4 5 5 5 5 5 5 5 5 6 6 6 8 7
3 4 3 2 2 2 2 3 3 3 4 4 5 5 5 5 4 5 4 3 3 3 4 4 4 4 4 4 4 4 4 4 5 5 5 5 5 5 6 7 6 6 6
2 3 4 3 2 2 3 3 3 3 4 4 5 6 7 3 4 4 4 3 3 4 4 4 4 4 4 4 4 4 5 5 5 5 5 5 5 5 6 6 6 7 6
2 2 2 2 2 3 3 3 3 3 4 5 4 5 8 4 3 4 4 4 4 4 4 4 4 4 4 5 4 5 5 5 5 5 6 6 5 6 6 6 6 6 6
2 2 2 3 3 4 4 3 3 4 4 4 4 4 4 4 4 4 5 5 5 5 5 4 5 5 5 5 6 5 5 6 6 6 6 6 6 6 6 6 6 6 6
2 2 2 3 3 3 3 3 4 4 4 4 4 4 4 4 5 5 5 5 5 5 5 5 5 7 8 7 7 7 8 8 9 7 7 6 6 6 5 6 6 6 6
1 2 2 2 3 3 3 4 4 4 4 4 4 5 5 5 5 5 5 5 5 5 6 7 6 7 8 9 9 9 11 12 11 8 6 5 6 6 6 6 6 6 5
2 2 2 2 3 3 3 4 4 4 4 4 4 5 5 5 5 5 5 5 5 6 6 7 8 9 10 9 10 12 13 12 12 11 7 5 5 5 5 5 5 5 5
Wind_Direction
236 232 232 240 238 232 231 228 225 227 221 221 225 224 229 232 229 229 237 239 239 243 242 237 239 237 239 243 239 234 234 233 250 265 267 274 270 278 291 289 285 281 276
261 253 247 246 238 235 244 241 231 227 228 226 227 230 234 239 235 232 235 236 237 241 244 244 245 242 238 237 236 236 237 238 241 260 272 271 266 266 272 281 288 284 279
298 281 274 263 243 237 243 244 236 230 231 230 227 235 239 239 235 234 237 240 241 242 242 242 247 244 245 241 239 239 239 247 243 251 267 267 269 270 276 281 280 281 282
311 292 277 268 259 250 245 240 235 231 230 232 234 238 244 247 244 242 241 243 246 248 247 246 247 243 244 242 244 244 240 244 249 253 263 267 265 262 253 267 279 274 279
320 305 283 279 276 265 252 245 240 239 242 238 238 248 252 249 246 247 244 242 245 250 251 251 252 254 254 251 249 245 239 241 246 251 261 267 265 261 255 258 270 282 280
314 303 306 308 303 283 264 248 243 246 252 256 258 257 259 256 261 260 254 244 247 249 253 254 255 258 262 264 261 257 250 242 239 244 254 259 261 259 262 268 272 281 280
320 317 316 316 310 303 303 311 278 267 271 273 269 268 270 265 263 262 261 253 245 248 252 256 262 263 266 260 266 269 267 264 256 248 251 255 257 255 255 263 263 268 270
312 316 321 325 327 326 329 319 303 287 263 262 268 268 276 277 272 268 268 262 254 253 250 250 256 264 262 261 258 262 263 265 264 254 251 255 257 255 247 254 261 271 277
308 308 315 318 317 322 316 307 303 291 285 278 277 272 273 281 278 274 274 262 259 263 260 254 254 257 264 266 259 261 266 269 275 268 266 270 274 273 268 260 260 264 276
300 301 307 304 298 297 296 300 299 291 285 289 291 285 276 278 279 280 276 267 263 268 267 261 259 261 266 264 256 256 260 264 271 277 278 279 277 276 275 255 247 251 264
304 317 317 310 300 290 290 294 293 295 299 296 294 294 288 284 283 280 276 267 256 263 266 266 264 267 269 269 265 258 262 269 266 265 268 273 274 269 267 261 250 244 250
316 319 314 313 308 306 304 300 295 287 293 294 295 299 295 291 288 284 279 274 269 260 262 261 263 271 273 276 274 270 272 274 264 261 263 266 269 270 269 265 262 255 252
308 305 305 315 317 305 291 291 298 286 277 284 286 288 295 295 292 291 287 283 280 271 265 265 268 270 274 275 273 276 276 267 257 259 262 264 265 267 272 272 272 268 271
289 297 304 310 311 313 304 291 283 275 273 278 281 284 291 296 293 293 290 290 285 280 278 275 274 274 272 267 269 275 271 263 261 261 266 269 271 272 271 269 274 276 281
298 302 305 302 297 302 304 292 281 262 260 268 270 273 281 287 289 297 300 289 281 272 282 282 282 276 272 271 267 265 264 265 266 265 268 272 271 270 275 277 272 272 272
291 301 300 299 298 301 301 309 307 302 301 298 295 293 289 294 305 308 308 304 300 293 289 277 273 272 267 266 267 269 262 260 260 262 265 265 268 269 273 276 271 268 269
269 282 286 291 293 295 299 300 308 314 315 314 310 308 307 310 313 315 316 315 312 308 292 292 282 276 275 270 264 262 265 264 261 260 264 266 268 269 270 272 271 270 270
276 275 280 273 278 284 286 291 295 304 313 315 317 319 321 321 321 321 321 326 326 328 310 298 294 291 287 282 274 265 264 267 264 262 263 265 265 267 269 270 269 269 274
282 279 278 277 280 284 287 290 294 298 301 306 314 321 326 326 328 331 333 328 312 309 306 303 300 298 295 292 289 280 268 264 263 262 264 264 263 264 265 267 267 270 274
284 290 302 295 293 297 294 293 296 298 299 303 308 313 321 326 330 332 333 325 311 302 301 298 298 295 293 292 291 289 282 272 268 265 265 266 265 264 263 264 265 265 266
292 295 300 301 292 287 287 288 291 295 298 302 303 307 319 324 317 313 314 312 306 302 301 300 297 295 291 288 287 286 283 281 273 267 267 268 269 267 266 265 263 262 262
297 298 301 297 294 290 294 294 294 294 299 301 304 310 319 324 316 313 311 309 306 302 297 296 293 291 288 286 283 284 284 283 281 275 270 267 267 266 268 266 264 265 264
310 310 309 307 302 298 305 302 299 298 300 301 305 309 312 310 306 302 302 304 304 302 298 292 291 293 294 292 284 274 274 276 277 274 269 266 264 266 265 265 264 266 263
325 318 310 306 305 302 301 301 300 300 301 302 304 305 305 304 303 301 300 300 302 299 298 294 288 286 289 294 291 282 275 275 275 269 264 263 267 269 265 262 262 260 259
329 321 315 309 307 305 303 301 300 300 301 302 303 305 307 307 306 305 303 302 302 300 299 297 293 290 288 289 290 289 288 290 289 279 262 262 263 263 263 261 259 261 254
329 316 310 305 300 299 298 297 297 297 297 300 301 302 303 303 302 302 303 303 306 305 303 301 298 297 295 294 292 294 295 295 295 292 280 268 261 261 261 260 260 258 254
Height
1468 1468 1468 1468 1469 1469 1469 1470 1471 1472 1473 1474 1475 1476 1477 1478 1478 1479 1479 1479 1480 1480 1481 1481 1481 1482 1483 1484 1484 1485 1485 1485 1483 1481 1482 1482 1483 1483 1483 1483 1483 1483 1483
1464 1464 1464 1464 1464 1464 1464 1465 1466 1466 1468 1469 1470 1471 1471 1472 1472 1472 1473 1473 1474 1474 1474 1475 1475 1476 1477 1477 1478 1478 1478 1479 1478 1475 1475 1476 1476 1476 1476 1476 1476 1476 1476
1461 1460 1459 1459 1459 1459 1459 1460 1460 1461 1462 1463 1464 1465 1465 1465 1466 1466 1467 1467 1467 1468 1468 1468 1469 1470 1470 1471 1471 1471 1472 1472 1471 1470 1469 1469 1469 1470 1470 1470 1469 1469 1468
1457 1456 1455 1454 1454 1454 1454 1455 1455 1456 1457 1458 1458 1459 1459 1459 1460 1460 1461 1461 1461 1461 1462 1462 1462 1463 1464 1464 1464 1465 1465 1465 1465 1464 1463 1463 1463 1463 1463 1462 1461 1461 1461
1453 1452 1451 1450 1450 1449 1449 1449 1450 1451 1451 1452 1452 1453 1453 1453 1454 1454 1454 1454 1455 1455 1455 1455 1456 1456 1457 1458 1458 1459 1459 1459 1459 1458 1457 1456 1456 1456 1456 1455 1454 1453 1453
1450 1449 1448 1447 1446 1445 1445 1445 1445 1446 1446 1446 1447 1447 1448 1448 1448 1448 1449 1448 1448 1448 1448 1449 1449 1450 1450 1451 1452 1452 1453 1453 1452 1452 1451 1450 1449 1450 1450 1449 1448 1447 1445
1447 1446 1445 1443 1442 1442 1441 1441 1441 1441 1441 1441 1442 1442 1442 1442 1442 1443 1443 1443 1442 1442 1442 1442 1442 1443 1444 1444 1445 1445 1446 1446 1446 1446 1445 1443 1443 1444 1444 1442 1441 1440 1439
1445 1443 1442 1440 1439 1439 1438 1437 1437 1437 1437 1437 1437 1437 1437 1436 1436 1437 1437 1436 1436 1436 1436 1436 1436 1436 1437 1438 1438 1438 1438 1438 1439 1439 1438 1437 1438 1437 1437 1436 1435 1434 1432
1442 1440 1439 1438 1437 1436 1435 1434 1434 1434 1433 1433 1432 1432 1432 1432 1432 1431 1431 1430 1430 1430 1430 1430 1430 1430 1431 1432 1432 1431 1431 1431 1432 1432 1432 1431 1431 1431 1431 1430 1429 1428 1425
1439 1438 1437 1436 1434 1433 1432 1432 1431 1430 1430 1429 1428 1428 1428 1427 1427 1427 1426 1425 1424 1424 1424 1424 1425 1424 1425 1426 1426 1425 1424 1424 1425 1425 1425 1425 1424 1424 1424 1423 1423 1421 1419
1437 1436 1434 1433 1432 1431 1430 1429 1428 1427 1426 1426 1425 1424 1423 1423 1423 1422 1422 1421 1420 1419 1419 1418 1419 1419 1420 1420 1420 1419 1419 1419 1418 1418 1417 1417 1417 1417 1417 1417 1417 1416 1414
1434 1433 1432 1431 1430 1429 1428 1426 1425 1424 1423 1422 1421 1420 1420 1419 1419 1417 1417 1417 1416 1415 1414 1413 1413 1414 1414 1414 1414 1413 1413 1414 1413 1412 1411 1410 1410 1410 1410 1410 1410 1409 1408
1431 1430 1429 1428 1427 1426 1425 1424 1423 1422 1421 1420 1418 1417 1416 1415 1414 1413 1413 1412 1411 1410 1409 1408 1409 1409 1409 1408 1408 1408 1408 1408 1407 1406 1405 1404 1404 1404 1404 1403 1403 1402 1401
1429 1427 1426 1425 1424 1423 1422 1421 1420 1419 1418 1416 1415 1414 1412 1411 1410 1409 1408 1407 1406 1405 1404 1404 1404 1403 1403 1403 1403 1402 1402 1402 1401 1400 1399 1399 1399 1398 1398 1397 1396 1396 1394
1426 1424 1423 1422 1421 1420 1419 1418 1417 1416 1415 1414 1412 1411 1410 1408 1407 1406 1404 1402 1402 1401 1399 1399 1398 1398 1397 1397 1397 1397 1396 1396 1395 1395 1394 1394 1393 1393 1392 1392 1391 1390 1388
1422 1421 1420 1419 1418 1417 1416 1415 1414 1413 1412 1411 1409 1408 1406 1405 1403 1402 1400 1399 1398 1397 1395 1394 1393 1392 1392 1392 1392 1391 1391 1390 1390 1390 1389 1389 1388 1387 1386 1386 1385 1384 1382
1420 1419 1418 1417 1416 1414 1413 1412 1410 1409 1408 1407 1406 1404 1403 1401 1400 1398 1396 1395 1394 1392 1391 1389 1389 1388 1387 1387 1386 1386 1386 1385 1385 1385 1384 1383 1383 1382 1381 1380 1379 1378 1377
1417 1416 1415 1414 1413 1412 1411 1409 1408 1406 1404 1402 1402 1401 1399 1397 1396 1394 1392 1391 1389 1388 1386 1385 1384 1384 1383 1382 1382 1381 1380 1380 1380 1380 1379 1378 1378 1377 1376 1374 1374 1373 1371
1415 1413 1412 1411 1411 1409 1408 1407 1405 1404 1402 1400 1398 1397 1395 1393 1392 1390 1388 1387 1385 1384 1383 1382 1380 1380 1379 1378 1377 1376 1376 1375 1375 1374 1373 1373 1372 1371 1370 1369 1368 1367 1366
1412 1411 1410 1409 1407 1406 1405 1404 1402 1401 1399 1397 1395 1393 1391 1390 1388 1386 1385 1383 1382 1381 1379 1378 1377 1376 1375 1374 1373 1372 1371 1370 1369 1369 1368 1367 1366 1366 1365 1364 1363 1362 1361
1409 1408 1407 1406 1405 1403 1402 1401 1400 1398 1396 1395 1393 1391 1389 1387 1385 1383 1382 1380 1379 1377 1376 1375 1373 1372 1371 1370 1369 1368 1366 1365 1365 1364 1362 1362 1361 1360 1359 1358 1358 1357 1356
1406 1405 1404 1403 1402 1401 1400 1399 1397 1396 1394 1392 1390 1388 1387 1385 1382 1381 1379 1377 1376 1375 1373 1372 1370 1369 1368 1366 1365 1363 1362 1360 1360 1359 1358 1357 1356 1355 1354 1353 1352 1351 1350
1404 1403 1402 1400 1399 1398 1397 1396 1394 1393 1391 1389 1388 1386 1384 1382 1380 1378 1376 1375 1373 1371 1370 1368 1366 1365 1364 1362 1361 1360 1358 1356 1355 1354 1352 1351 1350 1349 1348 1347 1346 1345 1344
1402 1400 1399 1398 1397 1395 1394 1393 1392 1390 1388 1387 1385 1383 1381 1379 1377 1375 1373 1372 1370 1368 1367 1365 1363 1361 1360 1358 1357 1356 1354 1352 1351 1349 1348 1346 1345 1344 1343 1341 1340 1340 1339
1399 1398 1397 1395 1394 1393 1391 1390 1389 1387 1385 1384 1382 1380 1378 1376 1374 1372 1370 1369 1367 1365 1363 1362 1360 1358 1356 1355 1353 1351 1350 1348 1346 1345 1343 1341 1339 1338 1337 1336 1335 1334 1334
1397 1396 1395 1393 1392 1390 1389 1387 1386 1384 1382 1381 1379 1377 1375 1373 1371 1369 1368 1366 1364 1362 1360 1358 1356 1354 1352 1351 1349 1347 1345 1344 1342 1340 1339 1336 1335 1333 1332 1331 1330 1330 1329